TA3ONK-13 Weather Reports


time (UTC)temp
C
wind
direction
speed
KPH
gust
KPH
rain 1hr
cm
rain 24hr
cm
rain mn
cm
humidity
%
barometer
mb
20260902143004 38 0 0.0 0.0 0.00 0.00 0.00 24 1014.7
20260902141503 38 0 0.0 0.0 0.00 0.00 0.00 24 1014.9
20260902140004 40 0 0.0 0.0 0.00 0.00 0.00 23 1015.1
20260902134502 38 0 0.0 0.0 0.00 0.00 0.00 23 1015.1
20260902133004 38 0 0.0 0.0 0.00 0.00 0.00 23 1015.4
20260902131503 38 0 0.0 0.0 0.00 0.00 0.00 21 1015.6
20260902130003 38 0 0.0 0.0 0.00 0.00 0.00 22 1015.6
20260902124504 38 0 0.0 0.0 0.00 0.00 0.00 20 1015.9
20260902123002 37 0 0.0 0.0 0.00 0.00 0.00 26 1016.0
20260902121503 36 0 0.0 0.0 0.00 0.00 0.00 28 1016.2
20260902120004 36 0 0.0 0.0 0.00 0.00 0.00 30 1016.3
20260902114502 36 0 0.0 0.0 0.00 0.00 0.00 29 1016.4
20260902113003 35 0 0.0 0.0 0.00 0.00 0.00 30 1016.5
20260902111503 36 0 0.0 0.0 0.00 0.00 0.00 30 1016.8
20260902110003 35 0 0.0 0.0 0.00 0.00 0.00 32 1016.8
20260902104503 35 0 0.0 0.0 0.00 0.00 0.00 30 1016.7
20260902103003 34 0 0.0 0.0 0.00 0.00 0.00 29 1016.8
20260902101503 34 0 0.0 0.0 0.00 0.00 0.00 30 1016.9
20260902100002 34 0 0.0 0.0 0.00 0.00 0.00 30 1017.0
20260902094503 34 0 0.0 0.0 0.00 0.00 0.00 35 1017.2
20260902093003 35 0 0.0 0.0 0.00 0.00 0.00 35 1017.3
20260902091503 40 0 0.0 0.0 0.00 0.00 0.00 29 1017.5
20260902090004 40 0 0.0 0.0 0.00 0.00 0.00 31 1017.7
20260902084503 42 0 0.0 0.0 0.00 0.00 0.00 28 1017.8
20260902083003 42 0 0.0 0.0 0.00 0.00 0.00 29 1017.9
20260902081502 42 0 0.0 0.0 0.00 0.00 0.00 28 1017.7
20260902080004 41 0 0.0 0.0 0.00 0.00 0.00 27 1017.3
20260902074514 39 0 0.0 0.0 0.00 0.00 0.00 33 1018.0
20260902073003 31 0 0.0 0.0 0.00 0.00 0.00 48 1017.8
20260902071502 30 0 0.0 0.0 0.00 0.00 0.00 52 1017.5
20260902070004 30 0 0.0 0.0 0.00 0.00 0.00 51 1017.5
20260902064503 31 0 0.0 0.0 0.00 0.00 0.00 49 1017.5
20260902063003 28 0 0.0 0.0 0.00 0.00 0.00 53 1017.3
20260902061502 28 0 0.0 0.0 0.00 0.00 0.00 53 1017.1
20260902060003 28 0 0.0 0.0 0.00 0.00 0.00 52 1017.3
20260902054502 27 0 0.0 0.0 0.00 0.00 0.00 53 1017.3
20260902053002 28 0 0.0 0.0 0.00 0.00 0.00 52 1017.3
20260902051503 27 0 0.0 0.0 0.00 0.00 0.00 53 1017.3
20260902050005 27 0 0.0 0.0 0.00 0.00 0.00 53 1017.2
20260902044503 27 0 0.0 0.0 0.00 0.00 0.00 55 1017.1
20260902043002 27 0 0.0 0.0 0.00 0.00 0.00 55 1017.1
20260902041502 26 0 0.0 0.0 0.00 0.00 0.00 54 1017.0
20260902040002 26 0 0.0 0.0 0.00 0.00 0.00 54 1017.0
20260902034504 25 0 0.0 0.0 0.00 0.00 0.00 58 1016.9
20260902033004 26 0 0.0 0.0 0.00 0.00 0.00 55 1016.8
20260902031502 26 0 0.0 0.0 0.00 0.00 0.00 55 1016.7
20260902030004 26 0 0.0 0.0 0.00 0.00 0.00 55 1016.7
20260902024502 26 0 0.0 0.0 0.00 0.00 0.00 57 1016.6
20260902023003 26 0 0.0 0.0 0.00 0.00 0.00 54 1016.5
20260902021502 27 0 0.0 0.0 0.00 0.00 0.00 54 1016.5
20260902020003 26 0 0.0 0.0 0.00 0.00 0.00 54 1016.5
20260902014502 27 0 0.0 0.0 0.00 0.00 0.00 53 1016.5
20260902013013 27 0 0.0 0.0 0.00 0.00 0.00 53 1016.5
20260902011502 27 0 0.0 0.0 0.00 0.00 0.00 52 1016.5
20260902010004 27 0 0.0 0.0 0.00 0.00 0.00 52 1016.4
20260902004502 27 0 0.0 0.0 0.00 0.00 0.00 52 1016.4
20260902003003 27 0 0.0 0.0 0.00 0.00 0.00 51 1016.4
20260902001502 28 0 0.0 0.0 0.00 0.00 0.00 51 1016.3
20260902000003 28 0 0.0 0.0 0.00 0.00 0.00 49 1016.2
20260901234503 28 0 0.0 0.0 0.00 0.00 0.00 50 1016.1
20260901233002 28 0 0.0 0.0 0.00 0.00 0.00 49 1016.0
20260901231502 28 0 0.0 0.0 0.00 0.00 0.00 48 1016.1
20260901230005 28 0 0.0 0.0 0.00 0.00 0.00 47 1016.2
20260901224503 29 0 0.0 0.0 0.00 0.00 0.00 47 1016.2
20260901223003 29 0 0.0 0.0 0.00 0.00 0.00 48 1016.2
20260901221502 29 0 0.0 0.0 0.00 0.00 0.00 46 1016.3
20260901220002 30 0 0.0 0.0 0.00 0.00 0.00 46 1016.2
20260901214503 29 0 0.0 0.0 0.00 0.00 0.00 47 1016.2
20260901213003 30 0 0.0 0.0 0.00 0.00 0.00 47 1016.1
20260901211503 30 0 0.0 0.0 0.00 0.00 0.00 50 1016.2
20260901210004 30 0 0.0 0.0 0.00 0.00 0.00 50 1016.2
20260901204502 30 0 0.0 0.0 0.00 0.00 0.00 51 1016.1
20260901203004 31 0 0.0 0.0 0.00 0.00 0.00 51 1016.1
20260901201503 31 0 0.0 0.0 0.00 0.00 0.00 51 1016.0
20260901200003 31 0 0.0 0.0 0.00 0.00 0.00 51 1015.9
20260901194504 31 0 0.0 0.0 0.00 0.00 0.00 52 1015.9
20260901193004 31 0 0.0 0.0 0.00 0.00 0.00 51 1016.1
20260901191502 31 0 0.0 0.0 0.00 0.00 0.00 49 1016.0
20260901190005 31 0 0.0 0.0 0.00 0.00 0.00 48 1015.9
20260901184503 32 0 0.0 0.0 0.00 0.00 0.00 46 1015.7
20260901183003 32 0 0.0 0.0 0.00 0.00 0.00 46 1015.6
20260901181502 32 0 0.0 0.0 0.00 0.00 0.00 46 1015.5
20260901180004 31 0 0.0 0.0 0.00 0.00 0.00 47 1015.4
20260901174502 32 0 0.0 0.0 0.00 0.00 0.00 46 1015.2
20260901173002 32 0 0.0 0.0 0.00 0.00 0.00 45 1015.1
20260901171502 32 0 0.0 0.0 0.00 0.00 0.00 44 1014.6
20260901170003 33 0 0.0 0.0 0.00 0.00 0.00 44 1014.4
20260901164502 33 0 0.0 0.0 0.00 0.00 0.00 43 1014.3
20260901163004 33 0 0.0 0.0 0.00 0.00 0.00 43 1014.2
20260901161503 33 0 0.0 0.0 0.00 0.00 0.00 42 1014.1
20260901160002 33 0 0.0 0.0 0.00 0.00 0.00 40 1014.0
20260901154503 35 0 0.0 0.0 0.00 0.00 0.00 36 1014.1
20260901153002 36 0 0.0 0.0 0.00 0.00 0.00 34 1014.0
20260901151502 36 0 0.0 0.0 0.00 0.00 0.00 32 1014.1
20260901150003 36 0 0.0 0.0 0.00 0.00 0.00 32 1014.1
20260901144502 37 0 0.0 0.0 0.00 0.00 0.00 31 1014.3